TimeEDT,TemperatureF,Dew PointF,Humidity,Sea Level PressureIn,VisibilityMPH,Wind Direction,Wind SpeedMPH,Gust SpeedMPH,PrecipitationIn,Events,Conditions,WindDirDegrees,DateUTC
12:53 AM,62.1,61.0,96,29.96,0.2,Calm,Calm,-,N/A,Fog,Fog,0,2012-10-03 04:53:00
1:53 AM,62.1,61.0,96,29.97,0.2,Calm,Calm,-,N/A,Fog,Fog,0,2012-10-03 05:53:00
2:30 AM,62.6,62.6,100,29.98,0.2,Calm,Calm,-,0.01,Fog,Fog,0,2012-10-03 06:30:00
2:50 AM,62.6,62.6,100,29.98,0.2,Calm,Calm,-,0.01,Fog,Fog,0,2012-10-03 06:50:00
2:53 AM,62.1,61.0,96,29.98,0.2,Calm,Calm,-,0.01,Fog,Fog,0,2012-10-03 06:53:00
3:39 AM,62.6,60.8,94,29.99,0.5,Calm,Calm,-,N/A,Fog,Fog,0,2012-10-03 07:39:00
3:53 AM,63.0,62.1,97,29.99,0.2,Calm,Calm,-,N/A,Fog,Fog,0,2012-10-03 07:53:00
4:06 AM,62.6,60.8,94,30.00,0.5,Calm,Calm,-,N/A,Fog,Fog,0,2012-10-03 08:06:00
4:33 AM,62.6,62.6,100,30.00,0.2,Calm,Calm,-,N/A,Fog,Fog,0,2012-10-03 08:33:00
4:53 AM,63.0,62.1,97,30.00,0.2,Calm,Calm,-,N/A,Fog,Fog,0,2012-10-03 08:53:00
5:02 AM,62.6,62.6,100,30.01,0.5,Calm,Calm,-,N/A,Fog,Fog,0,2012-10-03 09:02:00
5:10 AM,62.6,62.6,100,30.01,0.2,Calm,Calm,-,N/A,Fog,Fog,0,2012-10-03 09:10:00
5:38 AM,62.6,60.8,94,30.02,0.5,Calm,Calm,-,N/A,Fog,Fog,0,2012-10-03 09:38:00
5:53 AM,63.0,61.0,93,30.02,0.5,Calm,Calm,-,N/A,Fog,Fog,0,2012-10-03 09:53:00
6:11 AM,62.6,62.6,100,30.04,0.2,Calm,Calm,-,N/A,Fog,Fog,0,2012-10-03 10:11:00
6:53 AM,63.0,62.1,97,30.04,0.2,Calm,Calm,-,N/A,Fog,Fog,0,2012-10-03 10:53:00
7:53 AM,63.0,62.1,97,30.05,0.2,Calm,Calm,-,N/A,Fog,Fog,0,2012-10-03 11:53:00
8:05 AM,62.6,62.6,100,30.06,0.8,South,3.5,-,N/A,,Mist,180,2012-10-03 12:05:00
8:12 AM,62.6,62.6,100,30.05,1.2,Calm,Calm,-,N/A,,Overcast,0,2012-10-03 12:12:00
8:23 AM,62.6,62.6,100,30.06,0.5,Calm,Calm,-,N/A,Fog,Fog,0,2012-10-03 12:23:00
8:39 AM,64.4,62.6,94,30.07,2.0,Calm,Calm,-,N/A,,Overcast,0,2012-10-03 12:39:00
8:53 AM,64.0,62.1,93,30.07,1.5,Calm,Calm,-,N/A,,Overcast,0,2012-10-03 12:53:00
9:01 AM,64.4,62.6,94,30.07,2.0,Calm,Calm,-,N/A,,Overcast,0,2012-10-03 13:01:00
9:28 AM,64.4,62.6,94,30.08,3.0,SW,4.6,-,N/A,,Overcast,220,2012-10-03 13:28:00
9:53 AM,64.9,64.0,97,30.08,3.0,SSW,3.5,-,N/A,,Overcast,210,2012-10-03 13:53:00
10:43 AM,66.2,64.4,94,30.09,-9999.0,Calm,Calm,-,N/A,,Mostly Cloudy,0,2012-10-03 14:43:00
10:53 AM,68.0,64.9,90,30.08,-9999.0,Calm,Calm,-,N/A,,Mostly Cloudy,0,2012-10-03 14:53:00
11:53 AM,71.1,66.0,84,30.09,7.0,North,-9999.0,-,N/A,,Partly Cloudy,0,2012-10-03 15:53:00
12:53 PM,73.0,66.9,81,30.08,10.0,North,-9999.0,-,N/A,,Clear,0,2012-10-03 16:53:00
1:53 PM,73.9,68.0,82,30.08,10.0,North,-9999.0,-,N/A,,Clear,0,2012-10-03 17:53:00
2:53 PM,75.0,68.0,79,30.07,10.0,Calm,Calm,-,N/A,,Partly Cloudy,0,2012-10-03 18:53:00
3:53 PM,77.0,66.0,69,30.07,10.0,Calm,Calm,-,N/A,,Clear,0,2012-10-03 19:53:00
4:53 PM,77.0,64.9,66,30.06,10.0,Calm,Calm,-,N/A,,Clear,0,2012-10-03 20:53:00
5:53 PM,75.9,66.9,74,30.08,10.0,Calm,Calm,-,N/A,,Clear,0,2012-10-03 21:53:00
6:53 PM,72.0,66.9,84,30.09,10.0,Calm,Calm,-,N/A,,Clear,0,2012-10-03 22:53:00
7:53 PM,71.1,66.9,87,30.11,10.0,Calm,Calm,-,N/A,,Clear,0,2012-10-03 23:53:00
9:53 PM,69.1,66.0,90,30.12,10.0,Calm,Calm,-,N/A,,Clear,0,2012-10-04 01:53:00
10:53 PM,68.0,66.0,93,30.12,9.0,Calm,Calm,-,N/A,,Clear,0,2012-10-04 02:53:00
11:53 PM,69.1,66.0,90,30.12,10.0,Calm,Calm,-,N/A,,Clear,0,2012-10-04 03:53:00